AirNav   Phillips 66 Aviation Fuel
 
 568 users online  

43K Marion Municipal Airport
Marion, Kansas, USA

GOING TO MARION?


FAA INFORMATION EFFECTIVE 11 OCTOBER 2018

Location

FAA Identifier: 43K
Lat/Long: 38-20-15.4000N / 096-59-17.7000W
38-20.256667N / 096-59.295000W
38.3376111 / -96.9882500
(estimated)
Elevation: 1390 ft. / 424 m (estimated)
Variation: 07E (1985)
From city: 2 miles SE of MARION, KS
Time zone: UTC -5 (UTC -6 during Standard Time)
Zip code: 66861

Airport Operations

Airport use: Open to the public
Activation date: 12/1945
Control tower: no
ARTCC: KANSAS CITY CENTER
FSS: WICHITA FLIGHT SERVICE STATION
NOTAMs facility: ICT (NOTAM-D service available)
Attendance: UNATNDD
PHONE AVBL 24 HRS.
Wind indicator: yes
Segmented circle: no
Beacon: white-green (lighted land airport)
Operates sunset to sunrise.

Airport Communications

CTAF: 122.9

Nearby radio navigation aids

VOR radial/distance  VOR name  Freq  Var
FRIr183/(38.4)FORT RILEY VOR109.4006E

 
NDB name  Hdg/Dist  Freq  Var  ID
NEWTON033/21.228106EEWK . .-- -.-
HERINGTON195/22.940706EHRU .... .-. ..-

Airport Services

Fuel available: 100LL MOGAS
Parking: hangars and tiedowns
Airframe service: NONE
Powerplant service: NONE
Bottled oxygen: NONE
Bulk oxygen: NONE

Runway Information

Runway 17/35

Dimensions: 2573 x 40 ft. / 784 x 12 m
Surface: asphalt, in good condition
Runway edge lights: low intensity
Runway edge markings: RWY 35 ALIGNMENT NUMBERS FADED.
RUNWAY 17  RUNWAY 35
Latitude: 38-20.455545N38-20.031528N
Longitude: 096-59.227317W096-59.227317W
Elevation: 1382.0 ft.1378.0 ft.
Traffic pattern: leftleft
Runway heading: 173 magnetic, 180 true353 magnetic, 000 true
Markings: numbers only, in good conditionnumbers only, in good condition

Runway 3/21

Dimensions: 2745 x 95 ft. / 837 x 29 m
Surface: turf, in good condition
RY 03/21 IS SLIGHTLY ROUGH.
Runway edge markings: 03/21 THLDS & EDGES MKD WITH YELLOW PAINTED TIRES.
RUNWAY 3  RUNWAY 21
Traffic pattern: leftleft
Obstructions: 4 ft. fence
THE PROXIMITY OF THE FENCE TO THE RWY ESTABLISHES THE CONTROLLING OBSTRUCTION. THE 35' TO 40' TREES DIRECTLY BEHIND WOULD BE MORE OF A CONCERN FOR APPROACHING AIRCRAFT.
22 ft. pline, 735 ft. from runway, 170 ft. left of centerline, 33:1 slope to clear

Runway 13/31

Dimensions: 2722 x 50 ft. / 830 x 15 m
Surface: turf, in good condition
Runway edge markings: 13/31 THLD & EDGES MKD WITH YELLOW PAINTED TIRES.
RUNWAY 13  RUNWAY 31
Traffic pattern: leftleft
Obstructions: 14 ft. treesnone

Runway 18/36

Dimensions: 2310 x 67 ft. / 704 x 20 m
Surface: turf, in good condition
Runway edge markings: RY 18/36 THLD DELINEATED WITH YELLOW PAINTED TIRES.
RUNWAY 18  RUNWAY 36
Latitude: 38-20.459450N38-20.079648N
Longitude: 096-59.352258W096-59.385003W
Elevation: 1380.0 ft.1378.0 ft.
Traffic pattern: leftleft
Runway heading: 177 magnetic, 184 true357 magnetic, 004 true
Obstructions: 4 ft. fence, 9 ft. from runway, 30 ft. left and right of centerline, 2:1 slope to clearnone

Airport Ownership and Management from official FAA records

Ownership: Publicly-owned
Owner: CITY OF MARION
208 EAST SANTA FE
MARION, KS 66861
Phone 620-382-3703
Manager: DOUG KJELLIN
208 EAST SANTA FE
MARION, KS 66861
Phone 620-382-3703
MR.MAYFIELD IS CITY MGR. OF MARION KS.

Airport Operational Statistics

Aircraft based on the field: 17
Single engine airplanes: 16
Ultralights: 1
    
Aircraft operations: avg 25/day *
66% local general aviation
33% transient general aviation
<1% military
* for 12-month period ending 29 September 2016

Additional Remarks

A58-35 RWY 35 ROAD ABANDONED & IS GATED FM TRAFFIC. +4 FT FENCE; 70 FT FRM END OF RWY; BOTH SIDES OF RWY.
A58-17 +4' FENCE 5' FROM RWY END 30' L & R OF CNTRLEN; LOWERED AT RWY.

Instrument Procedures

There are no published instrument procedures at 43K.

Some nearby airports with instrument procedures:

KEWK - Newton City/County Airport (22 nm SW)
KHRU - Herington Regional Airport (23 nm N)
47K - Moundridge Municipal Airport (25 nm W)
KMPR - Mc Pherson Airport (33 nm W)
1K1 - Lloyd Stearman Field Airport (34 nm S)
 
Loc | Ops | Rwys | IFR | FBO | Links
Com | Nav | Svcs | Stats | Notes

Kansas City Aviation Department
 
Area around 43K (Marion Municipal Airport)
 
Road maps at: MapQuest Bing Google
 
Aerial photo
WARNING: Photo may not be current or correct
Aerial photo of 43K (Marion Municipal Airport)
Photo by Paul Hodson
Photo taken 21-Jan-2006
taken from a C182 from the northwest

Do you have a better or more recent aerial photo of Marion Municipal Airport that you would like to share? If so, please send us your photo.

 
Sectional chart

 
Airport distance calculator
Flying to Marion Municipal Airport? Find the distance to fly.

From to 43K

Sunrise and sunset
Times for 17-Oct-2018
 Local
(UTC-5)
 Zulu
(UTC)
Morning civil twilight07:1312:13
Sunrise07:4012:40
Sunset18:4723:47
Evening civil twilight19:1400:14

Current date and time
Zulu (UTC)  17-Oct-2018 10:54:59
Local (UTC-5)  17-Oct-2018 05:54:59
 
METAR
KEWK 
22nm SW 
170956Z AUTO 32005KT 10SM CLR 05/03 A3036 RMK AO2 SLP281 T00500033
K1K1 
34nm S 
171035Z AUTO 33004KT 10SM CLR 06/03 A3037 RMK AO2 T00630026
KEQA 
35nm S 
171035Z AUTO 34005KT 10SM CLR 06/02 A3036 RMK AO2
KAAO 
37nm S 
170954Z AUTO 31005KT 10SM CLR 07/03 A3035 RMK AO2 SLP279 T00720033
KEMP 
37nm E 
170953Z AUTO 28005KT 10SM CLR 06/02 A3035 RMK AO2 SLP281 T00610022
KBEC 
40nm S 
171035Z AUTO 33004KT 10SM CLR 09/03 A3035 RMK AO2 T00860026
K3AU 
40nm S 
171035Z AUTO 00000KT 10SM CLR 03/03 A3036 RMK AO2
KSLN 
41nm NW 
170953Z AUTO 34005KT 10SM CLR 05/03 A3037 RMK AO2 SLP283 T00500033
KFRI 
43nm N 
170956Z AUTO 00000KT 10SM CLR 03/02 A3035 RMK AO2 SLP278 T00310016
KHUT 
44nm W 
170952Z AUTO 30004KT 10SM CLR 05/04 A3036 RMK AO2 SLP272 T00500039
TAF
KSLN 
41nm NW 
170520Z 1706/1806 33005KT P6SM SKC FM171700 06006KT P6SM SKC
KFRI 
43nm N 
170800Z 1708/1814 34006KT 9999 SKC QNH3032INS BECMG 1717/1718 34010G15KT 9999 SKC QNH3040INS BECMG 1720/1721 36006KT 9999 SKC QNH3045INS BECMG 1802/1803 14006KT 9999 SKC QNH3050INS TX18/1720Z TN02/1711Z
KHUT 
44nm W 
170520Z 1706/1806 35004KT P6SM FEW250 FM171700 05009KT P6SM SKC
KIAB 
45nm S 
171000Z 1710/1816 VRB06KT 9999 SKC QNH3033INS BECMG 1717/1718 05010G15KT 9999 SKC QNH3045INS BECMG 1723/1724 03006KT 9999 FEW300 QNH3046INS BECMG 1811/1812 09006KT 9999 FEW120 QNH3050INS TX17/1720Z TN03/1711Z
KICT 
46nm SW 
170520Z 1706/1806 35004KT P6SM FEW250 FM171700 05009KT P6SM SKC
KMHK 
50nm N 
170520Z 1706/1806 VRB03KT P6SM SCT200
NOTAMs
Click for the latest NOTAMs
NOTAMs are issued by the DoD/FAA and will open in a separate window not controlled by AirNav.

 

 
 

Would you like to see your business listed on this page?

 If your business provides an interesting product or service to pilots, flight crews, aircraft, or users of the Marion Municipal Airport, you should consider listing it here.  To start the listing process, click on the button below
 
Add a business
 

Other Pages about Marion Municipal Airport

Update a link
 
Copyright © AirNav, LLC. All rights reserved. Privacy Policy  Contact